Theta_e
299 301 301 300 299 300 295 294 291 293 293 297 303 305 306 308 309 311 312 316 318 319 325 329 328 329 328 327 326 332 335 333 333 333 332 327 325 325 324 324 324 323 320 318
294 299 300 297 298 299 301 301 294 295 293 303 305 306 306 307 307 308 310 315 316 317 320 328 329 328 328 327 328 337 335 333 333 332 330 327 325 323 324 324 323 322 320 317
288 297 296 290 296 299 300 303 301 293 299 304 303 304 304 304 306 307 309 311 315 316 318 321 328 328 327 327 327 336 335 334 333 331 330 326 325 323 323 322 322 320 318 315
286 291 282 291 301 302 302 303 304 304 304 304 304 305 306 307 306 306 308 309 312 316 316 319 321 333 329 329 327 334 334 334 332 331 330 327 325 323 324 322 318 316 314 313
284 284 289 294 301 300 299 298 305 303 304 304 305 305 305 308 309 307 307 309 311 316 315 315 316 321 332 335 336 334 333 332 332 331 329 327 325 325 321 318 316 314 311 307
286 283 282 293 300 302 303 293 302 305 301 302 302 294 298 307 310 308 309 311 313 316 317 315 316 320 322 326 336 335 334 333 333 331 329 327 327 324 321 318 315 312 307 307
285 284 289 296 297 300 291 290 300 305 302 302 299 301 305 309 310 311 310 311 314 314 313 314 316 319 318 324 324 328 337 335 334 331 329 328 328 323 318 316 311 307 305 304
286 283 283 297 296 289 293 296 303 300 298 300 304 306 307 309 310 310 310 311 312 312 311 316 320 321 316 316 323 327 330 333 332 332 330 327 321 317 316 310 306 304 301 302
285 286 295 294 293 295 297 302 298 297 298 299 302 304 306 306 308 310 310 311 312 310 311 314 318 319 317 318 322 323 324 325 329 328 324 321 317 313 310 308 305 303 301 300
286 290 290 293 295 296 299 297 297 298 298 299 300 303 305 306 306 308 309 309 311 311 310 312 316 319 317 318 319 319 318 319 320 318 316 316 314 313 309 307 305 302 301 299
285 289 291 292 294 296 296 298 298 299 299 299 300 301 304 305 306 306 308 309 311 312 311 311 313 315 314 314 316 313 313 314 313 313 314 313 313 313 310 309 306 303 302 300
282 289 289 291 295 296 295 296 297 298 298 301 302 302 304 304 306 305 306 308 309 312 312 314 314 313 313 312 313 313 311 312 312 313 312 312 310 306 297 301 298 298 299 301
289 293 294 295 296 297 296 297 299 300 300 301 303 302 303 303 304 305 306 307 308 310 311 313 312 314 314 312 312 312 311 310 311 310 311 309 308 306 300 297 296 296 295 296
297 296 293 297 296 301 300 301 302 302 302 303 303 302 302 302 303 303 305 306 307 309 310 311 313 314 316 313 310 310 310 304 309 310 310 308 307 305 304 303 301 299 295 297
299 299 298 299 299 299 301 301 299 299 301 301 302 302 301 300 300 301 304 306 306 306 308 309 310 312 315 312 309 308 308 307 308 308 308 307 307 305 305 304 302 300 298 297
299 300 300 299 300 301 302 302 301 301 302 302 302 301 301 302 302 302 303 304 305 305 306 309 310 313 314 311 309 308 307 303 303 307 306 306 306 304 304 303 301 299 299 299
297 296 299 299 300 301 302 303 304 304 303 302 303 305 306 306 306 304 304 306 307 306 309 309 313 314 312 310 308 307 306 304 297 306 306 306 305 304 304 303 301 301 300 298
302 302 302 302 302 303 305 306 307 307 303 304 305 306 306 307 306 306 306 310 309 308 308 306 312 310 310 309 308 307 306 305 305 305 305 304 303 303 302 301 301 300 299 293
304 304 305 306 307 306 304 304 305 306 307 307 307 307 309 309 309 310 309 308 307 307 308 311 306 308 310 307 307 307 306 305 304 304 303 297 301 302 302 301 300 299 299 293
304 306 307 306 305 303 303 303 304 304 306 306 306 305 304 305 307 308 308 306 306 307 308 309 309 311 310 305 302 307 306 305 304 303 303 302 301 301 301 296 299 298 297 294
305 305 306 305 303 303 304 303 304 302 303 304 303 302 303 304 305 304 303 303 303 300 305 306 311 310 308 303 306 306 305 305 304 303 302 302 301 301 301 300 299 299 298 297
306 306 306 306 303 302 303 302 302 302 303 304 304 303 301 300 300 304 302 297 301 290 301 302 304 295 300 297 308 306 305 305 305 304 303 302 301 301 301 300 300 301 301 301
303 305 305 304 302 301 303 302 301 300 301 301 300 300 300 299 299 297 296 298 299 293 301 297 291 291 292 305 305 305 305 305 305 305 304 304 302 303 302 301 302 303 303 302
301 301 301 303 302 300 298 301 302 300 299 299 301 302 300 299 300 302 301 294 290 293 295 294 293 292 294 303 303 303 303 303 303 303 303 296 303 304 303 303 303 303 304 302
301 301 301 300 301 300 299 299 302 301 299 299 299 299 299 299 298 300 299 299 291 296 299 290 289 291 300 299 297 296 296 297 299 301 302 302 303 303 303 303 303 304 304 304
301 302 302 302 302 302 301 298 296 300 300 299 300 299 299 298 298 298 298 294 298 293 298 297 296 298 297 297 297 297 296 296 297 296 297 298 300 301 302 303 302 302 303 303
302 298 301 301 303 302 302 300 296 297 300 301 300 301 300 299 298 297 293 299 298 298 298 299 299 296 298 299 299 298 298 297 294 297 298 298 298 298 299 299 299 300 300 301
Wind_Speed
5 7 7 9 4 8 5 8 7 7 8 2 7 9 9 7 13 15 19 18 19 17 13 14 15 15 12 13 14 14 15 15 16 15 14 14 14 15 14 15 15 15 15 15
6 7 8 6 8 11 13 12 7 6 6 2 7 7 9 9 17 17 16 16 17 22 23 14 16 17 17 16 16 16 18 17 14 14 15 15 15 14 15 16 15 15 16 17
6 6 7 9 11 11 2 7 4 2 4 8 14 16 13 11 14 16 17 18 17 15 21 21 13 15 16 20 16 17 17 16 16 16 16 17 16 16 17 16 15 16 16 16
4 3 6 4 5 3 9 7 7 4 3 4 7 15 10 7 13 17 19 19 17 12 12 16 20 13 13 12 16 18 17 17 17 19 19 17 18 16 13 13 15 14 13 13
2 3 7 4 8 6 4 2 4 4 5 6 7 10 1 10 10 12 15 16 16 13 13 10 13 16 11 8 13 15 20 21 21 20 19 17 15 16 11 10 11 11 11 12
0 3 6 2 8 12 6 4 6 2 9 11 10 9 3 11 9 10 14 14 15 14 13 8 9 10 9 12 6 14 17 21 21 22 20 19 21 19 21 15 12 11 11 12
4 6 5 5 9 11 5 5 9 4 9 7 6 5 12 11 9 10 7 11 15 14 12 9 8 8 6 7 8 9 13 12 15 21 22 18 17 13 15 15 13 13 13 12
0 2 8 5 5 4 8 12 8 7 12 14 14 14 12 10 10 12 13 10 11 11 14 12 9 7 2 3 5 7 4 10 17 19 16 13 17 14 14 15 15 14 14 12
3 6 3 3 4 6 7 4 7 10 13 15 16 16 15 12 9 12 14 11 8 9 11 12 10 8 9 5 3 4 5 11 7 16 14 15 16 16 13 15 14 13 13 12
5 6 8 16 17 9 5 14 11 16 17 15 16 14 16 15 11 10 11 10 9 9 8 10 12 9 8 10 11 13 14 13 10 11 12 11 10 11 11 11 12 12 12 12
7 12 12 10 7 14 17 11 16 16 16 15 12 14 13 13 14 12 12 12 8 9 8 9 7 9 7 6 7 7 8 8 6 10 8 10 9 10 11 12 16 16 13 15
6 8 11 18 16 15 18 20 19 17 17 15 13 14 13 13 11 10 12 12 9 11 10 10 8 5 5 4 6 3 8 3 4 2 3 5 7 7 10 8 13 14 22 18
10 11 18 23 21 20 18 18 18 17 17 18 15 11 11 9 9 11 12 13 12 13 12 10 8 9 6 4 6 6 5 4 2 4 5 7 7 9 8 9 15 15 16 17
14 12 15 15 16 21 22 23 22 21 18 17 16 12 11 9 8 9 12 15 12 11 12 11 10 11 8 4 2 4 7 7 5 4 4 5 7 8 8 11 12 9 11 16
14 9 15 20 22 22 21 20 19 19 17 16 15 12 10 11 13 13 14 14 12 9 12 10 10 13 7 6 5 5 6 5 5 4 4 5 6 7 8 9 10 10 8 8
19 19 19 18 20 21 21 22 20 18 14 15 13 14 13 14 14 12 13 12 10 10 11 11 11 14 7 9 8 6 6 9 7 6 6 6 6 7 7 9 10 10 10 9
17 17 18 18 17 20 19 19 18 15 13 13 14 14 14 14 12 12 11 11 9 8 11 10 12 5 8 8 9 5 4 5 6 5 6 7 7 8 8 8 8 9 9 9
14 15 16 16 16 15 15 15 17 12 10 12 12 12 14 12 11 11 10 10 13 12 8 8 6 7 8 8 8 6 6 5 5 5 5 6 6 7 7 8 9 9 8 6
13 13 12 11 11 13 13 14 13 14 11 10 10 11 10 7 8 6 8 7 6 6 5 7 5 8 9 8 8 6 6 7 5 5 6 6 6 6 7 7 7 8 9 8
12 10 10 10 10 10 13 15 13 12 11 11 10 10 12 11 10 8 6 5 7 5 8 7 3 4 6 10 8 6 7 8 7 6 6 6 6 6 6 7 8 8 8 8
11 7 7 7 7 7 9 10 11 10 11 11 11 10 10 9 9 10 10 8 12 11 9 8 6 6 4 7 6 6 5 5 6 5 6 6 6 6 6 6 7 7 7 7
9 8 10 8 7 8 8 8 9 10 11 11 11 10 10 11 10 7 7 6 7 11 8 7 6 7 5 6 5 6 5 5 5 5 6 6 6 7 7 8 8 6 6 4
6 6 7 8 7 8 7 6 8 8 11 12 11 10 9 7 6 7 8 11 7 9 8 7 9 10 10 6 5 5 4 3 3 4 5 6 6 7 6 7 7 7 6 5
6 6 6 7 6 7 8 7 5 6 6 6 8 11 9 6 6 5 4 5 8 8 7 7 9 10 9 6 6 6 6 5 5 5 4 4 5 6 7 9 8 6 3 4
6 6 6 5 7 5 6 6 5 4 6 6 6 5 6 5 4 4 5 6 8 7 7 8 10 10 6 6 5 5 4 4 4 4 4 5 5 6 6 7 7 6 3 3
7 6 6 7 5 5 4 2 3 3 1 4 4 4 3 3 3 4 4 5 5 6 6 6 5 5 5 4 4 4 4 3 4 4 4 3 5 5 5 5 5 5 6 8
6 5 4 5 4 2 3 2 2 4 3 2 1 2 3 3 3 3 3 4 5 4 4 4 4 4 3 3 3 2 2 2 2 2 2 2 2 2 3 3 3 2 3 5
Wind_Direction
248 263 282 275 299 319 252 227 197 251 241 0 329 314 312 346 345 352 360 355 351 337 280 246 215 212 213 209 191 185 185 187 194 185 182 174 175 178 175 177 179 179 174 175
265 267 261 259 294 275 272 269 251 258 257 13 301 309 338 2 354 352 353 344 350 354 344 269 244 221 207 205 196 187 187 191 184 178 174 179 178 173 174 179 181 176 181 175
257 222 308 284 226 236 292 41 331 351 343 344 344 340 338 6 354 343 340 338 338 347 346 334 268 240 251 205 192 191 190 181 179 178 181 180 173 171 179 181 175 180 178 176
260 243 236 256 49 48 102 53 20 4 358 331 303 298 309 26 357 341 335 331 327 330 344 347 337 294 239 235 209 187 189 182 175 178 187 181 173 167 173 170 174 174 175 177
251 239 293 4 14 359 360 82 7 334 339 322 306 291 165 19 356 330 325 321 316 319 314 328 343 338 319 211 217 217 192 188 183 179 177 169 177 160 153 173 169 168 157 150
304 262 252 359 337 319 298 234 354 332 328 328 337 350 308 335 330 326 327 328 325 322 318 315 330 336 0 8 254 231 235 204 185 180 179 173 170 159 165 177 164 149 140 151
212 243 283 322 6 319 221 307 325 297 312 304 310 255 293 303 299 307 297 322 332 336 326 303 289 296 22 8 16 322 263 232 228 176 168 175 165 159 154 150 142 143 140 144
60 275 277 10 21 63 282 309 307 340 326 317 307 305 298 290 292 298 300 312 325 331 325 318 314 301 299 307 303 1 260 272 218 213 147 150 146 139 149 138 140 144 140 144
206 241 270 82 212 244 271 254 298 303 298 297 295 291 289 289 277 280 289 290 293 310 323 314 327 349 346 328 264 30 18 219 255 184 127 141 145 143 143 146 146 152 153 153
3 272 307 308 305 292 274 297 293 297 288 284 278 283 287 288 286 274 282 288 281 294 314 320 329 341 344 340 14 40 34 339 159 150 127 138 133 140 149 150 150 154 156 150
269 289 294 275 289 296 297 281 288 283 277 275 276 283 278 278 280 277 278 282 269 275 282 289 310 327 339 16 16 63 69 8 334 91 129 136 142 158 165 174 163 161 167 158
246 275 276 285 290 284 290 287 286 287 288 269 267 278 285 279 273 272 273 279 268 266 273 273 284 286 304 2 77 17 79 72 0 51 146 149 138 102 36 135 144 157 157 159
273 273 278 277 284 282 272 267 269 270 266 270 266 254 267 268 268 272 276 273 264 263 266 260 266 284 282 212 126 103 97 126 149 229 178 158 153 145 126 70 98 119 127 138
276 284 287 290 291 302 296 291 289 283 272 264 266 265 261 263 261 284 279 276 267 255 256 251 254 259 243 261 87 130 145 160 164 201 199 172 159 142 146 144 143 148 143 149
284 273 285 291 293 291 289 286 287 288 287 283 280 273 266 268 276 278 275 279 279 263 256 242 239 248 233 165 174 166 160 162 169 173 168 172 148 146 149 146 140 140 130 119
299 295 295 294 291 293 296 298 297 281 283 286 290 284 279 275 268 264 263 272 272 281 274 251 239 239 199 184 184 167 173 156 159 160 151 148 151 148 142 148 145 152 154 150
301 297 298 297 300 302 307 306 299 296 280 285 287 290 291 281 281 277 268 266 263 263 272 263 243 198 181 170 170 156 150 147 162 154 165 158 159 161 159 152 153 154 149 143
291 286 287 288 293 299 313 330 329 311 282 281 292 294 294 292 278 277 270 278 290 281 264 252 238 155 162 166 155 150 147 157 168 155 143 158 157 146 145 141 140 141 136 126
314 311 312 316 334 336 332 332 335 353 339 311 305 320 313 301 296 296 291 320 315 304 299 322 230 162 160 158 143 142 145 156 159 154 146 137 133 131 141 137 147 146 149 142
324 329 344 359 357 349 338 349 348 351 353 355 354 5 9 9 3 7 4 23 11 338 316 327 115 120 129 138 138 137 151 160 159 150 151 148 146 142 142 149 154 155 151 148
317 314 328 334 328 333 357 346 347 355 354 1 13 10 1 358 11 12 12 9 354 349 2 31 61 82 87 124 115 125 138 151 150 150 142 145 141 140 145 154 162 148 155 156
333 331 326 330 334 328 343 355 358 356 9 11 14 13 11 10 6 9 43 9 339 353 21 22 26 57 95 92 112 125 138 143 135 133 144 156 162 167 164 164 154 135 115 122
299 316 317 329 326 305 310 7 356 5 19 22 21 13 15 9 10 13 13 354 8 8 38 33 29 51 56 55 55 66 86 116 134 153 163 170 170 160 144 145 143 148 156 148
311 319 318 321 332 359 357 328 348 350 359 357 23 29 26 7 25 25 27 12 20 29 39 31 44 46 50 55 56 59 65 69 68 68 78 113 147 142 139 140 144 147 161 113
319 307 301 326 331 314 321 330 313 344 1 359 10 14 18 3 36 360 23 28 24 28 37 24 35 40 50 57 61 62 63 67 79 103 102 109 119 127 133 136 142 141 159 131
314 301 292 284 245 277 293 343 304 273 347 351 354 6 10 7 17 25 33 31 30 27 35 27 25 32 40 43 44 47 60 81 78 75 88 95 109 117 128 133 142 169 196 221
300 284 329 320 312 319 316 297 298 292 218 196 251 297 319 340 344 356 4 19 24 20 12 3 15 16 6 18 43 59 58 66 76 86 89 103 100 113 127 136 159 218 248 249